Вернуться в каталог

KOSEN-2R

АктивенНаукаSSO
NORAD 68793·PAYLOAD·🇯🇵 Japan

Запущен Apr 23, 2026 с Rocket Lab Launch Complex 1

Loading…

Ближайшие Пролёты (ближайшие 24 часа)

TLE

СвежийSource: Space-Track

Эпоха: Sep 14, 2026, 08:46 UTC

1 68793U 26088B   26257.36587786  .00003653  00000-0  24387-3 0  9993
2 68793  97.5191  44.5263 0015934 153.9872 206.2161 15.07540543 21722

Отслеживайте KOSEN-2R в реальном времени с AllMySat

Download on the App Store